[[{"header":{"parameterUnit":"m.s-1","parameterCategory":1,"la1":30.2991,"la2":30.254,"lo1":-89.0895,"lo2":-89.0444,"dy":0.0017,"dx":0.0017,"nx":28,"ny":28,"refTime":"2025-07-06T09:00:00:Z","depth":0,"parameterNumber":2,"parameterNumberName":"U-component_of_WINDS"},"data":[0,0,0,0,0,0,0,0,0,0,0,0,0,0,0,0,0,0,0,0,0,0,0,0,0,0,0,0,0,0,0,0,0,0,0,0,0,0,0,0,0,0,0,0,0,0,0,0,0,0,0,0,0,0,0,0,0,0,-0.5256,-0.5256,0,-0.5218,-0.5217,-0.5217,-0.5182,-0.5182,-0.5181,-0.5181,-0.5142,-0.5142,-0.5141,0,0,0,0,0,0,0,0,0,0,0,0,0,-0.5299,-0.5298,-0.5256,-0.5256,-0.5255,-0.5218,-0.5217,-0.5217,-0.5182,-0.5182,-0.5181,-0.5181,-0.5142,-0.5142,-0.5141,0,0,0,0,0,0,0,0,0,0,0,0,0,-0.5272,-0.5298,-0.5256,-0.5233,-0.5231,-0.5218,-0.5217,-0.5216,-0.5182,-0.5182,-0.5181,-0.5181,-0.5143,-0.5142,-0.5141,-0.5147,0,0,-0.5138,-0.5137,0,0,0,0,0,0,0,0,-0.5274,-0.5271,-0.5237,-0.5235,-0.5232,-0.5204,-0.5218,-0.5193,-0.5183,-0.5201,-0.5181,-0.518,-0.5163,-0.5161,-0.5155,-0.5145,-0.5143,-0.5138,-0.5137,-0.5137,-0.5136,0,0,0,0,0,0,0,-0.5276,-0.5272,-0.5241,-0.5237,-0.5234,-0.5225,-0.522,-0.5213,-0.5186,-0.5199,-0.5197,-0.5193,-0.5162,-0.5156,-0.5154,-0.5143,-0.5138,-0.5137,-0.5136,-0.5136,-0.5134,-0.5135,0,0,0,0,0,0,-0.5281,-0.5274,-0.5242,-0.524,-0.5252,-0.5225,-0.522,-0.5214,-0.5186,-0.5181,-0.5193,-0.5191,-0.5158,-0.5155,-0.5152,-0.5156,-0.5137,-0.5136,-0.5135,-0.5134,-0.5134,-0.5135,0,0,0,0,0,0,-0.5282,-0.5279,-0.5244,-0.5256,-0.5251,-0.5225,-0.5218,-0.5213,-0.5207,-0.5181,-0.5176,-0.5192,-0.5157,-0.5153,-0.5148,-0.5154,-0.5135,-0.5134,-0.5133,-0.5134,-0.5135,-0.5165,0,0,0,0,0,0,-0.5284,-0.5279,-0.5282,-0.5256,-0.525,-0.5241,-0.5219,-0.5213,-0.5206,-0.5203,-0.5179,-0.5174,-0.5156,-0.515,-0.5147,-0.5153,-0.5134,-0.5132,-0.5133,-0.5134,-0.5164,-0.5167,-0.517,0,0,0,0,0,-0.5285,-0.5292,-0.5282,-0.5278,-0.5253,-0.5241,-0.5238,-0.5217,-0.5206,-0.5208,-0.5191,-0.5175,-0.5154,-0.5149,-0.5146,-0.5152,-0.5132,-0.5133,-0.5134,-0.5162,-0.5166,-0.517,0,0,0,0,0,0,-0.532,-0.5289,-0.5277,-0.5276,-0.5261,-0.5235,-0.5237,-0.5222,-0.521,-0.5208,-0.5182,-0.5177,-0.5174,-0.5162,-0.5158,-0.5155,-0.5141,-0.5141,-0.5163,-0.5167,-0.517,-0.5173,-0.5133,0,0,0,0,0,-0.5327,-0.532,-0.5293,-0.5295,-0.5288,-0.5264,-0.5258,-0.5243,-0.5227,-0.5221,-0.5203,-0.5188,-0.5178,-0.5172,-0.5161,-0.5162,-0.5155,-0.5164,-0.5167,-0.517,-0.517,-0.5168,-0.5171,-0.5139,-0.5139,-0.5139,0,0,-0.5342,-0.5325,-0.5322,-0.5302,-0.5288,-0.5281,-0.5259,-0.5253,-0.5247,-0.522,-0.5213,-0.52,-0.5181,-0.5178,-0.5176,-0.5168,-0.5178,-0.5171,-0.5174,-0.5173,-0.517,-0.5173,-0.5176,-0.514,-0.514,-0.5139,0,0,-0.5367,-0.5353,-0.5352,-0.5339,-0.5319,-0.5303,-0.5302,-0.5278,-0.5268,-0.5261,-0.524,-0.5232,-0.5216,-0.5202,-0.5194,-0.5211,-0.5195,-0.5208,-0.5225,-0.5223,-0.5226,-0.5228,-0.5233,-0.5235,-0.5209,-0.5209,-0.5209,0,-0.5388,-0.5377,-0.5354,-0.5348,-0.5339,-0.5313,-0.5312,-0.53,-0.5278,-0.5272,-0.5264,-0.5241,-0.5227,-0.522,-0.5224,-0.5218,-0.5216,-0.5211,-0.5227,-0.5229,-0.5231,-0.5235,-0.5237,-0.5211,-0.5211,-0.5211,-0.521,0,-0.5404,-0.5396,-0.5398,-0.5376,-0.5367,-0.5364,-0.534,-0.5334,-0.5319,-0.5303,-0.5296,-0.5277,-0.5261,-0.5259,-0.5245,-0.5249,-0.5245,-0.5232,-0.5217,-0.5236,-0.524,-0.5241,-0.5213,-0.5213,-0.5212,-0.5212,0,0,-0.545,-0.5414,-0.5415,-0.5404,-0.5379,-0.5373,-0.5368,-0.5352,-0.5346,-0.5332,-0.5326,-0.5312,-0.5299,-0.5289,-0.5273,-0.5272,-0.5285,-0.5259,-0.5258,-0.5264,-0.5287,-0.5296,-0.5299,-0.5274,-0.5274,-0.5275,-0.5288,0,-0.5469,-0.5458,-0.5437,-0.5433,-0.5424,-0.5399,-0.5394,-0.5378,-0.5363,-0.5353,-0.5336,-0.5326,-0.5311,-0.5305,-0.5302,-0.5284,-0.5289,-0.5283,-0.5268,-0.5268,-0.5273,-0.5301,-0.5311,-0.5325,-0.529,-0.529,-0.529,0,-0.5491,-0.5477,-0.5472,-0.5446,-0.5441,-0.5438,-0.542,-0.5412,-0.5393,-0.5382,-0.537,-0.5352,-0.5344,-0.533,-0.5318,-0.5314,-0.5307,-0.5297,-0.5297,-0.5295,-0.528,-0.5298,-0.5329,-0.533,-0.5292,-0.5292,-0.5292,0,-0.5523,-0.5503,-0.5497,-0.5489,-0.5459,-0.5456,-0.5444,-0.5424,-0.5415,-0.54,-0.5394,-0.5378,-0.537,-0.5358,-0.5335,-0.5328,-0.5326,-0.531,-0.5315,-0.5316,-0.5316,-0.5316,-0.5345,-0.5313,-0.5312,-0.5312,-0.5312,0,-0.5547,-0.5545,-0.5511,-0.5507,-0.5503,-0.5478,-0.5475,-0.546,-0.5442,-0.5434,-0.5411,-0.5404,-0.5376,-0.5365,-0.5348,-0.534,-0.5337,-0.5327,-0.5322,-0.5329,-0.533,-0.5323,-0.5321,-0.5313,-0.5313,-0.5313,-0.5313,0,-0.5583,-0.556,-0.5552,-0.5524,-0.5516,-0.5515,-0.549,-0.5485,-0.5468,-0.5458,-0.5455,-0.5428,-0.5414,-0.5391,-0.5371,-0.5359,-0.5354,-0.5346,-0.536,-0.5357,-0.5363,-0.5363,-0.5388,-0.539,-0.5357,-0.5358,-0.5358,0,-0.5599,-0.5597,-0.5568,-0.5561,-0.5549,-0.5538,-0.5529,-0.5503,-0.5495,-0.5471,-0.5469,-0.5453,-0.5439,-0.5419,-0.5397,-0.5381,-0.5372,-0.5382,-0.537,-0.5376,-0.5371,-0.5371,-0.537,-0.5385,-0.5386,-0.5386,-0.5386,0,-0.5631,-0.5619,-0.5607,-0.559,-0.5579,-0.5564,-0.5549,-0.5544,-0.5515,-0.5506,-0.5491,-0.5481,-0.5459,-0.5444,-0.5424,-0.541,-0.5393,-0.539,-0.539,-0.5397,-0.5404,-0.5399,-0.5367,-0.539,-0.539,-0.5389,-0.5389,-0.5389,-0.5657,-0.5652,-0.5631,-0.5617,-0.5603,-0.5588,-0.5581,-0.5563,-0.555,-0.5531,-0.5516,-0.5502,-0.5481,-0.5453,-0.5441,-0.5429,-0.5421,-0.5422,-0.5422,-0.5422,-0.5424,-0.5407,-0.5425,-0.5425,-0.5425,-0.5425,-0.5425,0,-0.5686,-0.567,-0.5658,-0.5636,-0.5625,-0.5609,-0.5591,-0.5582,-0.557,-0.5552,-0.5539,-0.5521,-0.5505,-0.5482,-0.5464,-0.5459,-0.5451,-0.5455,-0.5455,-0.5452,-0.5432,-0.5434,-0.5462,-0.5462,-0.5462,-0.5462,-0.5462,-0.5462,-0.57,-0.5691,-0.5677,-0.5661,-0.5645,-0.5631,-0.5622,-0.5608,-0.5593,-0.5574,-0.5561,-0.5546,-0.5525,-0.5505,-0.5489,-0.5483,-0.5477,-0.5484,-0.5475,-0.5457,-0.5453,-0.545,-0.5451,-0.5483,-0.5483,-0.5495,-0.5495,-0.5495]},{"header":{"parameterUnit":"m.s-1","parameterCategory":1,"la1":30.2991,"la2":30.254,"lo1":-89.0895,"lo2":-89.0444,"dy":0.0017,"dx":0.0017,"nx":28,"ny":28,"refTime":"2025-07-06T09:00:00:Z","depth":0,"parameterNumber":3,"parameterNumberName":"V-component_of_WINDS"},"data":[0,0,0,0,0,0,0,0,0,0,0,0,0,0,0,0,0,0,0,0,0,0,0,0,0,0,0,0,0,0,0,0,0,0,0,0,0,0,0,0,0,0,0,0,0,0,0,0,0,0,0,0,0,0,0,0,0,0,-1.4371,-1.4372,0,-1.4453,-1.4454,-1.4455,-1.4493,-1.4493,-1.4493,-1.4493,-1.4576,-1.4578,-1.458,0,0,0,0,0,0,0,0,0,0,0,0,0,-1.4246,-1.4248,-1.4371,-1.4372,-1.4373,-1.4453,-1.4454,-1.4456,-1.4493,-1.4493,-1.4493,-1.4493,-1.4575,-1.4578,-1.4581,0,0,0,0,0,0,0,0,0,0,0,0,0,-1.4311,-1.4248,-1.4371,-1.4402,-1.4405,-1.4453,-1.4454,-1.4456,-1.4493,-1.4493,-1.4493,-1.4493,-1.4574,-1.4578,-1.4581,-1.4604,0,0,-1.4591,-1.4593,0,0,0,0,0,0,0,0,-1.4307,-1.4316,-1.4396,-1.44,-1.4404,-1.4463,-1.4441,-1.4505,-1.4493,-1.446,-1.4493,-1.4493,-1.4538,-1.4545,-1.456,-1.4608,-1.4611,-1.4592,-1.4594,-1.4595,-1.4596,0,0,0,0,0,0,0,-1.4303,-1.4312,-1.4404,-1.4397,-1.4402,-1.4411,-1.442,-1.4453,-1.4499,-1.4463,-1.4466,-1.4475,-1.454,-1.4557,-1.4563,-1.4613,-1.4592,-1.4595,-1.4597,-1.4598,-1.4683,-1.4683,0,0,0,0,0,0,-1.4293,-1.4308,-1.4401,-1.4406,-1.4354,-1.4413,-1.4424,-1.4444,-1.4498,-1.4507,-1.4475,-1.4476,-1.4551,-1.4559,-1.4566,-1.4596,-1.4595,-1.4598,-1.46,-1.4683,-1.4683,-1.4683,0,0,0,0,0,0,-1.4291,-1.4301,-1.4398,-1.4358,-1.4371,-1.4416,-1.4438,-1.4446,-1.4462,-1.4508,-1.4516,-1.4484,-1.4551,-1.4561,-1.4594,-1.46,-1.46,-1.4603,-1.4683,-1.4683,-1.4683,-1.4658,0,0,0,0,0,0,-1.4287,-1.43,-1.431,-1.4358,-1.4373,-1.4425,-1.4439,-1.4447,-1.4468,-1.4471,-1.4518,-1.4526,-1.4552,-1.4589,-1.4598,-1.4604,-1.4606,-1.4682,-1.4683,-1.4683,-1.4658,-1.4657,-1.4656,0,0,0,0,0,-1.4282,-1.4299,-1.431,-1.4321,-1.4386,-1.4426,-1.4434,-1.4465,-1.4469,-1.4478,-1.4507,-1.4524,-1.4598,-1.4592,-1.4602,-1.461,-1.4682,-1.4683,-1.4683,-1.4659,-1.4657,-1.4656,0,0,0,0,0,0,-1.425,-1.4306,-1.4319,-1.4352,-1.4384,-1.4432,-1.4445,-1.4462,-1.4494,-1.4495,-1.4531,-1.4541,-1.4571,-1.4594,-1.4587,-1.4635,-1.4641,-1.4644,-1.4619,-1.4618,-1.4617,-1.4611,-1.4608,0,0,0,0,0,-1.4246,-1.4274,-1.4322,-1.4346,-1.4361,-1.44,-1.4419,-1.444,-1.4474,-1.4488,-1.4519,-1.4552,-1.4582,-1.4601,-1.4632,-1.4661,-1.4672,-1.4672,-1.4671,-1.4669,-1.4671,-1.4689,-1.4689,-1.4685,-1.4685,-1.4685,0,0,-1.424,-1.4274,-1.4289,-1.434,-1.4368,-1.4395,-1.4412,-1.444,-1.4461,-1.4492,-1.4526,-1.455,-1.4588,-1.462,-1.4635,-1.464,-1.4675,-1.467,-1.4669,-1.4671,-1.4689,-1.4689,-1.469,-1.4685,-1.4685,-1.4685,0,0,-1.4242,-1.427,-1.4294,-1.4321,-1.4362,-1.4388,-1.4393,-1.4439,-1.4457,-1.4491,-1.4515,-1.454,-1.4591,-1.4618,-1.4638,-1.465,-1.4666,-1.4659,-1.4653,-1.467,-1.467,-1.467,-1.4675,-1.4676,-1.466,-1.466,-1.466,0,-1.4228,-1.4272,-1.4304,-1.4331,-1.4353,-1.4382,-1.4406,-1.4431,-1.4479,-1.4494,-1.4498,-1.4563,-1.4591,-1.463,-1.4632,-1.4648,-1.4655,-1.4654,-1.4667,-1.4668,-1.4669,-1.4674,-1.4675,-1.4659,-1.4659,-1.4659,-1.4659,0,-1.4253,-1.4282,-1.4296,-1.4343,-1.4366,-1.4392,-1.4428,-1.4447,-1.4466,-1.4491,-1.4525,-1.456,-1.4598,-1.4608,-1.4626,-1.4649,-1.4651,-1.466,-1.4668,-1.4668,-1.4673,-1.4675,-1.4657,-1.4658,-1.4658,-1.4658,0,0,-1.4238,-1.4302,-1.4306,-1.4328,-1.4375,-1.4398,-1.4425,-1.4462,-1.4478,-1.4511,-1.4534,-1.4577,-1.4586,-1.4609,-1.4631,-1.4645,-1.4652,-1.4653,-1.4655,-1.4652,-1.4679,-1.4671,-1.4673,-1.4663,-1.4664,-1.4664,-1.4676,0,-1.4246,-1.4296,-1.4326,-1.4363,-1.439,-1.4418,-1.4441,-1.4473,-1.4497,-1.4523,-1.455,-1.458,-1.459,-1.4604,-1.4619,-1.4648,-1.4658,-1.4647,-1.4685,-1.4686,-1.4675,-1.4675,-1.4668,-1.4677,-1.4678,-1.4678,-1.4679,0,-1.4264,-1.4296,-1.4336,-1.438,-1.4393,-1.4413,-1.445,-1.4475,-1.451,-1.4527,-1.4552,-1.4574,-1.4602,-1.4607,-1.4647,-1.4639,-1.4656,-1.4672,-1.4673,-1.4678,-1.4682,-1.4681,-1.4681,-1.4682,-1.4682,-1.4682,-1.4681,0,-1.4249,-1.4302,-1.4333,-1.435,-1.4402,-1.4416,-1.4438,-1.4474,-1.4494,-1.4526,-1.454,-1.4574,-1.4593,-1.4619,-1.4649,-1.465,-1.4686,-1.4693,-1.4701,-1.47,-1.4708,-1.4707,-1.4711,-1.4718,-1.4718,-1.4718,-1.4718,0,-1.4256,-1.4279,-1.4327,-1.4345,-1.4372,-1.4406,-1.4431,-1.4456,-1.4487,-1.4511,-1.4537,-1.4559,-1.4598,-1.4624,-1.4647,-1.4677,-1.4685,-1.4699,-1.4705,-1.4697,-1.4695,-1.4709,-1.4709,-1.4718,-1.4718,-1.4718,-1.4718,0,-1.4244,-1.4276,-1.4312,-1.4358,-1.437,-1.4388,-1.4428,-1.4447,-1.4472,-1.4502,-1.4511,-1.4551,-1.4583,-1.4616,-1.4659,-1.4675,-1.4704,-1.4712,-1.4692,-1.4696,-1.4701,-1.47,-1.4715,-1.4718,-1.4722,-1.4722,-1.4722,0,-1.4246,-1.4265,-1.4313,-1.4331,-1.4353,-1.4382,-1.4403,-1.4436,-1.4457,-1.4499,-1.4513,-1.4548,-1.4577,-1.4628,-1.466,-1.4694,-1.4703,-1.4705,-1.4708,-1.4699,-1.4703,-1.4702,-1.4704,-1.4704,-1.4704,-1.4704,-1.4704,0,-1.4247,-1.4262,-1.4292,-1.4327,-1.4352,-1.4381,-1.4412,-1.4425,-1.4464,-1.4486,-1.452,-1.4542,-1.4587,-1.4621,-1.4658,-1.4681,-1.4699,-1.4703,-1.4706,-1.4698,-1.4686,-1.4693,-1.469,-1.4702,-1.4703,-1.4703,-1.4703,-1.4703,-1.4243,-1.4261,-1.4298,-1.433,-1.4356,-1.4383,-1.4404,-1.4432,-1.446,-1.45,-1.4517,-1.4551,-1.4586,-1.4638,-1.466,-1.4687,-1.4692,-1.4697,-1.4698,-1.4699,-1.4697,-1.4681,-1.4694,-1.4694,-1.4694,-1.4694,-1.4694,0,-1.4246,-1.427,-1.43,-1.4341,-1.4366,-1.4381,-1.4415,-1.4435,-1.4465,-1.4496,-1.4525,-1.4563,-1.4596,-1.4631,-1.4666,-1.468,-1.4689,-1.4688,-1.4688,-1.4693,-1.4691,-1.4685,-1.468,-1.468,-1.468,-1.468,-1.468,-1.468,-1.425,-1.4281,-1.43,-1.4344,-1.4369,-1.4403,-1.4421,-1.4447,-1.4472,-1.4514,-1.4541,-1.4564,-1.4597,-1.4634,-1.4665,-1.4674,-1.4686,-1.4682,-1.4694,-1.4692,-1.4693,-1.4694,-1.4688,-1.4684,-1.4684,-1.4693,-1.4694,-1.4694]}]]